User: anonymous   Login
Location: Northam
(31.6525°S, 116.6655°E)
Time: 23:35:13
(UTC+08:00)
Language:

XW-2F - Orbit

View from above orbital plane
View from above orbital plane
View from above satellite
View from above satellite

Ground track
Ground track

The orbit data is extracted from the following two-line orbital elements,

1 40910U 15049M   21215.20853102  .00001969  00000-0  96557-4 0  9996
2 40910  97.4727 219.9409 0014747  14.6183  49.7991 15.19217821324827
Epoch (UTC): 03 August 2021 05:00:17
Eccentricity: 0.0014747
inclination: 97.4727°
perigee height: 498 km
apogee height: 518 km
right ascension of ascending node: 219.9409°
argument of perigee: 14.6183°
revolutions per day: 15.19217821
mean anomaly at epoch: 49.7991°
orbit number at epoch: 32482

The dashed part of the orbit path shows where the satellite is in the earth's shadow,  

DLR